ATLAS 5 CENTAUR DEB, 44002

Orbit data source: Space-Track

ATLAS 5 CENTAUR DEB, 44002 is space debris in HEO originally from a launch on Wed, 17 Sep 2014 UTC launched from the Air Force Eastern Test Range (AFETR). Debris objects in space refer to the collection of defunct objects orbiting the Earth. Examples of debris include non-operational satellites, rocket bodies, and fragments generated from explosions, collisions, or faulty payload assembly.

Loading next visibility...
Identifier
44002, 2014-055BH
Orbit
HEO
Country
Flag of USUS
Related business
Flag of USUnited Launch Alliance/Lockheed Martin (US)
Manufacturer
Unknown
Mission
Spacecraft
Bus & Motor
Unknown
Mass
Unknown
Launch date (UTC)
2014-09-17 (12 years ago)
Launch vehicle
Unknown
Launch site
Air Force Eastern Test Range (AFETR)
Object type
Payload
Rocket body
Debris
Shape & HBR
Unknown shape, 1.1 m
Radar Cross Section
Medium (>0.1 m² and <1 m²)

Expand to show TLE details & history
Last TLE update: 1 day ago

TLE from 1 day ago
0 ATLAS 5 CENTAUR DEB
1 44002U 14055BH  26094.69015211 -.00000041  00000-0  00000+0 0  9996
2 44002  19.7813 155.6711 4804953 142.2794 263.7610  1.83902897 51029
Epoch: 2026-04-04T16:33Z
TLE epoch observation values (Epoch: 2026-04-04T16:33:49.142Z)
Latitude
0.00001°
Longitude
74.26301°
Altitude
28,529.939 km
Speed
2.945 km/s
True Right ascension
10h 22m 53s
True Declination
0° 00' 00"
Sunlit
Object was in daylight at epoch
Visualization orbit readout
Latitude
Unknown
Longitude
Unknown
Altitude
Unknown
Speed
Unknown
Apparent Right ascension
Unknown
Apparent Declination
Unknown
Sunlit
N/A
Visualization observer readout
Local Sidereal Time
22:50:55
Azimuth
Unknown
Elevation
Unknown
Doppler factor
Unknown
Orbital elements
Apogee altitude
35,287.665 km
Perigee altitude
8,242.362 km
Semi-major axis
28,143.151 km
Eccentricity
0.4805
Inclination
19.7813°
RAAN
155.6711°
Arg. of periapsis
142.2794°
True anomaly
217.71558°
Mean anomaly
263.761°
Eccentric anomaly
239.93472°
Mean motion
0.45971 °/min
Orbital period
783.1 mins
BSTAR
0
Loading maneuver chart data...
Computing Atmospheric mass density...

Documentation

Showing up to 5 results
|